#timestamp,LO_Frequency,Hit,StdDev 
1543748415.8,286046994.3,N
1543748435.6,286046992.4,N
1543748455.5,286046995.8,N
1543748475.3,286046992.2,N
1543748495.2,286046990.4,N
1543748515.9,286046989.0,N
1543748535.7,286046989.5,N
1543748555.6,286046987.3,N
1543748575.4,286046987.2,N
1543748595.2,286046986.8,N
1543748615.1,286046984.4,N
1543748616.0,286046984.4,N
1543748635.8,286046984.6,N
1543748655.7,286046982.1,N
1543748675.5,286046982.2,N
1543748695.3,286046983.5,N
1543748715.2,286046981.4,N
1543748735.9,286046980.8,N
1543748755.7,286046978.9,N
1543748775.6,286046981.7,N
1543748795.4,286046981.3,N
1543748815.2,286046983.3,N
1543748835.1,286046983.3,N
1543748836.0,286046983.3,N
1543748855.8,286046983.2,N
1543748875.7,286046983.0,N
1543748895.5,286046984.3,N
1543748915.3,286046988.3,N
1543748935.2,286046989.7,N
1543748955.0,286046994.4,N
1543748955.9,286046994.4,N
1543748975.7,286046994.6,N
1543748995.6,286046996.3,N
1543749015.4,286046998.4,N
1543749035.3,286047001.2,N
1543749055.1,286047004.4,N
1543749075.8,286047009.0,N
1543749095.7,286047013.3,N
1543749115.5,286047015.4,N
1543749135.4,286047019.7,N
1543749155.2,286047024.6,N
1543749175.0,286047025.9,N
1543749175.9,286047025.9,N
1543749195.8,286047023.9,N
1543749215.6,286047024.2,N
1543749235.4,286047028.1,N
1543749255.3,286047027.8,N
1543749275.1,286047023.4,N
1543749295.9,286047020.4,N
1543749315.7,286047016.8,N
1543749335.5,286047012.9,N
1543749355.4,286047011.2,N
1543749375.2,286047007.8,N
1543749395.1,286047007.5,N
1543749396.0,286047007.5,N
1543749415.8,286047003.3,N
1543749435.6,286047001.5,N
1543749455.5,286046998.1,N
1543749475.3,286046998.6,N
1543749495.2,286046996.7,N
1543749515.9,286046995.6,N
1543749535.7,286046994.3,N
1543749555.6,286046992.5,N
1543749575.4,286046990.3,N
1543749595.2,286046991.0,N
1543749615.1,286046988.7,N
1543749616.0,286046988.7,N
1543749635.8,286046990.0,N
1543749655.7,286046988.0,N
1543749675.5,286046985.7,N
1543749695.3,286046986.4,N
1543749715.2,286046984.9,N
1543749735.0,286046982.6,N
1543749735.9,286046982.6,N
1543749755.7,286046982.8,N
1543749775.6,286046982.7,N
1543749795.4,286046983.5,N
1543749815.3,286046981.2,N
1543749835.1,286046981.9,N
1543749836.0,286046981.9,N
1543749855.8,286046981.4,N
1543749875.7,286046978.9,N
1543749895.5,286046980.3,N
1543749915.3,286046978.5,N
1543749935.2,286046977.9,N
1543749955.0,286046975.8,Y
1543749955.9,286046975.8,P
1543749975.8,286046991.2,N
1543749995.6,286046988.8,N
1543750015.4,286046989.8,N
1543750035.3,286046989.7,N
1543750055.1,286046986.9,N
1543750075.8,286046989.5,N
1543750095.7,286046989.5,N
1543750115.5,286046987.2,N
1543750135.4,286046987.9,N
1543750155.2,286046988.2,Y
1543750175.0,286046999.0,P
1543750175.9,286046999.0,N
1543750195.8,286046998.5,N
1543750215.6,286047002.3,N
1543750235.4,286047006.0,N
1543750255.3,286047009.8,N
1543750275.1,286047014.1,N
1543750295.9,286047019.9,N
1543750315.7,286047022.1,N
1543750335.5,286047028.4,N
1543750355.4,286047031.5,N
1543750375.2,286047032.0,N
1543750395.1,286047036.3,N
1543750396.0,286047036.3,N
1543750415.8,286047032.5,N
1543750435.6,286047028.6,N
1543750455.5,286047027.1,N
1543750475.3,286047024.8,N
1543750495.1,286047021.8,N
1543750515.9,286047016.1,N
1543750535.7,286047014.2,N
1543750555.5,286047012.9,N
1543750575.4,286047013.9,N
1543750595.2,286047011.6,N
1543750615.1,286047011.5,N
1543750616.0,286047011.5,N
1543750635.8,286047011.1,N
1543750655.6,286047013.4,N
1543750675.5,286047017.7,N
1543750695.3,286047019.2,N
1543750715.1,286047021.9,N
1543750735.9,286047020.0,N
1543750755.7,286047016.4,N
1543750775.6,286047014.4,N
1543750795.4,286047012.6,N
1543750815.2,286047013.4,N
1543750835.1,286047010.9,N
1543750836.0,286047010.9,N
1543750855.8,286047012.0,N
1543750875.6,286047010.2,N
1543750895.5,286047009.8,N
1543750915.3,286047011.4,N
1543750935.1,286047018.8,N
1543750955.9,286047019.6,N
1543750975.7,286047025.1,Y
1543750995.6,286047010.7,P
1543751015.4,286047016.5,P
1543751035.2,286047014.4,P
1543751055.1,286047018.6,Y
1543751056.0,286047018.6,P
1543751075.8,286047006.7,P
1543751095.6,286047012.4,N
1543751115.5,286047013.7,Y
1543751135.3,286047001.3,P
1543751155.2,286047006.0,N
1543751175.9,286047004.3,N
1543751195.7,286047002.5,N
1543751215.6,286047000.0,N
1543751235.4,286047000.7,N
1543751255.2,286046999.6,N
1543751275.1,286047001.1,N
1543751276.0,286047001.1,N
1543751295.8,286047001.8,N
1543751315.7,286047005.6,N
1543751335.5,286047009.1,N
1543751355.3,286047007.1,N
1543751375.2,286047003.1,N
1543751395.0,286047002.8,N
1543751395.9,286047002.8,N
1543751415.8,286046997.0,N
1543751435.6,286046994.0,N
1543751455.4,286046991.7,N
1543751475.3,286046994.4,N
1543751495.1,286046993.0,N
1543751496.0,286046993.0,N
1543751515.8,286046994.6,N
1543751535.7,286046995.8,N
1543751555.5,286046999.3,N
1543751575.3,286047001.6,N
1543751595.2,286047007.4,N
1543751615.0,286047003.3,N
1543751615.9,286047003.3,N
1543751635.8,286047004.3,N
1543751655.6,286047003.3,N
1543751675.4,286047007.4,N
1543751695.3,286047011.2,N
1543751715.1,286047012.9,N
1543751735.9,286047015.3,N
1543751755.7,286047015.4,N
1543751775.5,286047011.1,N
1543751795.4,286047010.1,N
1543751815.2,286047009.5,N
1543751835.0,286047010.6,N
1543751835.9,286047010.6,N
1543751855.8,286047011.6,N
1543751875.6,286047009.9,N
1543751895.4,286047008.3,N
1543751915.3,286047009.6,N
1543751935.1,286047012.1,N
1543751955.9,286047012.0,N
1543751975.7,286047008.7,N
1543751995.5,286047006.6,N
